This is the latest recevied weather packets stored in our database for station/object HS3PIK-2. If no packets are shown the sender has not sent any weather packets the latest 10 day(s).
| Time | Temp. | Humidity | Pressure | Rain* | Wind** | Luminosity | Snow |
|---|---|---|---|---|---|---|---|
| 1777719347 | 31.67° C | 74% | - | - | - | 0 W/m² | - |
| 1777719020 | 32.22° C | 71% | - | - | - | 0 W/m² | - |
| 1777718690 | 32.78° C | 69% | - | - | - | 0 W/m² | - |
| 1777718363 | 34.44° C | 67% | - | - | - | 0 W/m² | - |
| 1777718032 | 35° C | 62% | - | - | - | 0 W/m² | - |
| 1777717705 | 35° C | 61% | - | - | - | 0 W/m² | - |
| 1777717378 | 35° C | 60% | - | - | - | 0 W/m² | - |
| 1777717045 | 35° C | 59% | - | - | - | 0 W/m² | - |
| 1777716720 | 35.56° C | 60% | - | - | - | 0 W/m² | - |
| 1777716390 | 35° C | 60% | - | - | - | 0 W/m² | - |
| 1777716065 | 35° C | 60% | - | - | - | 0 W/m² | - |
| 1777715735 | 35° C | 61% | - | - | - | 0 W/m² | - |
| 1777715405 | 35° C | 60% | - | - | - | 0 W/m² | - |
| 1777715080 | 35.56° C | 60% | - | - | - | 0 W/m² | - |
| 1777714750 | 35.56° C | 59% | - | - | - | 0 W/m² | - |
| 1777714423 | 35.56° C | 58% | - | - | - | 0 W/m² | - |
| 1777714098 | 36.11° C | 57% | - | - | - | 0 W/m² | - |
| 1777713768 | 35.56° C | 56% | - | - | - | 0 W/m² | - |
| 1777713438 | 35.56° C | 55% | - | - | - | 0 W/m² | - |
| 1777713113 | 35.56° C | 55% | - | - | - | 0 W/m² | - |
| 1777712786 | 35.56° C | 55% | - | - | - | 0 W/m² | - |
| 1777712455 | 36.67° C | 53% | - | - | - | 0 W/m² | - |
| 1777712128 | 37.78° C | 53% | - | - | - | 0 W/m² | - |
| 1777711801 | 37.78° C | 53% | - | - | - | 0 W/m² | - |
| 1777711473 | 37.22° C | 54% | - | - | - | 0 W/m² | - |
* Rain since midnight (hover to see other rain measurements)
** Current wind speed in m/s (hover to see current wind gust speed)